[[{"header":{"parameterUnit":"m.s-1","parameterCategory":1,"la1":30.2991,"la2":30.254,"lo1":-89.0895,"lo2":-89.0444,"dy":0.0017,"dx":0.0017,"nx":28,"ny":28,"refTime":"2023-08-06T21:00:00:Z","depth":0,"parameterNumber":2,"parameterNumberName":"U-component_of_WINDS"},"data":[0,0,0,0,0,0,0,0,0,0,0,0,0,0,0,0,0,0,0,0,0,0,0,0,0,0,0,0,0,0,0,0,0,0,0,0,0,0,0,0,0,0,0,0,0,0,0,0,0,0,0,0,0,0,0,0,0,0,3.1267,3.1268,0,3.1386,3.1387,3.1388,3.1397,3.1395,3.1394,3.1393,3.1518,3.1522,3.1527,0,0,0,0,0,0,0,0,0,0,0,0,0,3.105,3.1054,3.1266,3.1268,3.1269,3.1385,3.1387,3.1389,3.1397,3.1395,3.1394,3.1392,3.1516,3.1522,3.1527,0,0,0,0,0,0,0,0,0,0,0,0,0,3.1154,3.1055,3.1266,3.1287,3.129,3.1385,3.1387,3.1389,3.1397,3.1395,3.1393,3.1391,3.1514,3.1521,3.1528,3.161,0,0,3.1549,3.1552,0,0,0,0,0,0,0,0,3.1148,3.1162,3.1283,3.1286,3.129,3.1374,3.1357,3.1463,3.1398,3.1357,3.1393,3.139,3.1472,3.1482,3.1509,3.1616,3.1622,3.1549,3.1554,3.1557,3.1558,0,0,0,0,0,0,0,3.1141,3.1157,3.1314,3.1284,3.1289,3.1292,3.1305,3.1377,3.1424,3.136,3.1361,3.1375,3.1473,3.1502,3.1512,3.1623,3.1549,3.1555,3.156,3.1562,3.1807,3.1809,0,0,0,0,0,0,3.1129,3.1151,3.131,3.1317,3.1212,3.1298,3.1312,3.1349,3.1423,3.1433,3.1376,3.1375,3.1491,3.1504,3.1516,3.1618,3.1556,3.1563,3.1567,3.1804,3.1807,3.181,0,0,0,0,0,0,3.1125,3.1143,3.1305,3.1234,3.1255,3.1304,3.1345,3.1352,3.1381,3.1436,3.1444,3.1397,3.149,3.1507,3.1587,3.1623,3.1566,3.1572,3.1801,3.1805,3.1808,3.1822,0,0,0,0,0,0,3.1118,3.1142,3.1172,3.1235,3.1259,3.1372,3.1348,3.1356,3.1393,3.1392,3.1457,3.1466,3.149,3.1577,3.1594,3.1631,3.1578,3.1798,3.1803,3.1807,3.1819,3.1826,3.1832,0,0,0,0,0,3.1111,3.1172,3.1174,3.1193,3.1298,3.1374,3.1388,3.1413,3.1396,3.1428,3.1463,3.1464,3.1616,3.1585,3.1604,3.1644,3.1796,3.1802,3.1807,3.1816,3.1825,3.1832,0,0,0,0,0,0,3.1112,3.118,3.1183,3.1266,3.1314,3.1376,3.1416,3.1422,3.1477,3.1473,3.1504,3.1519,3.1598,3.163,3.1593,3.1729,3.1705,3.1714,3.1705,3.1714,3.172,3.171,3.1583,0,0,0,0,0,3.1122,3.1177,3.1234,3.1302,3.1326,3.1367,3.1402,3.1417,3.1469,3.1489,3.153,3.1581,3.1641,3.1679,3.1737,3.1824,3.1839,3.1862,3.1868,3.1873,3.1881,3.193,3.1941,3.1827,3.1827,3.1827,0,0,3.1143,3.1187,3.122,3.1304,3.1343,3.1401,3.1384,3.1446,3.1489,3.1499,3.1577,3.1609,3.1669,3.1753,3.1792,3.1782,3.1916,3.188,3.1884,3.1888,3.1937,3.1948,3.1957,3.1831,3.183,3.183,0,0,3.1211,3.1249,3.131,3.135,3.141,3.1437,3.1452,3.1514,3.1535,3.1614,3.1623,3.1676,3.1778,3.182,3.1854,3.1941,3.1944,3.1959,3.1993,3.2041,3.205,3.2058,3.2088,3.2099,3.1967,3.1967,3.1967,0,3.1229,3.1315,3.1341,3.1403,3.144,3.1452,3.1515,3.1553,3.1628,3.1654,3.1641,3.177,3.1811,3.1905,3.1927,3.1955,3.1973,3.1951,3.2046,3.2054,3.2062,3.2092,3.2104,3.1968,3.1968,3.1968,3.1968,0,3.1336,3.1395,3.1438,3.151,3.1553,3.1614,3.1652,3.1692,3.1704,3.1734,3.1815,3.1865,3.1933,3.1957,3.197,3.2055,3.2046,3.2039,3.2015,3.2074,3.2102,3.2114,3.197,3.197,3.1969,3.1969,0,0,3.1404,3.1492,3.1507,3.1541,3.1609,3.1656,3.172,3.1786,3.182,3.1873,3.1928,3.2015,3.2009,3.2049,3.2068,3.211,3.2176,3.2098,3.21,3.211,3.2272,3.2275,3.2288,3.2179,3.2182,3.2183,3.2267,0,3.1479,3.1591,3.1618,3.1714,3.177,3.1784,3.184,3.1888,3.1918,3.1972,3.2005,3.2066,3.2055,3.2079,3.2121,3.2158,3.2208,3.2153,3.2231,3.2233,3.2214,3.2303,3.2307,3.2383,3.2278,3.228,3.2282,0,3.158,3.1635,3.1736,3.1799,3.1823,3.1873,3.1936,3.1987,3.2044,3.2063,3.2108,3.2123,3.2191,3.2165,3.226,3.2222,3.2256,3.228,3.2284,3.229,3.2259,3.2312,3.2408,3.2419,3.2299,3.2298,3.2297,0,3.1619,3.1719,3.1793,3.1822,3.1896,3.193,3.1963,3.2018,3.2057,3.2113,3.2139,3.2203,3.2238,3.2288,3.2321,3.2299,3.2414,3.239,3.2432,3.2431,3.2454,3.2452,3.2556,3.2478,3.2478,3.2478,3.2477,0,3.1699,3.176,3.1812,3.1857,3.1927,3.1959,3.2028,3.2062,3.211,3.2164,3.218,3.223,3.2271,3.2327,3.2353,3.2428,3.2444,3.2462,3.2468,3.246,3.2457,3.2481,3.2476,3.2481,3.248,3.2479,3.2479,0,3.1753,3.179,3.1872,3.1936,3.1954,3.2003,3.2059,3.2104,3.2136,3.2203,3.2221,3.227,3.2337,3.2375,3.246,3.2477,3.2561,3.2565,3.2541,3.2543,3.2583,3.2578,3.2704,3.2722,3.2634,3.2635,3.2635,0,3.1801,3.1848,3.1919,3.1955,3.1988,3.2047,3.2087,3.2121,3.2162,3.2231,3.2269,3.2337,3.2392,3.2499,3.2543,3.2608,3.2614,3.2654,3.2623,3.2614,3.2613,3.2609,3.2614,3.2658,3.2659,3.2659,3.266,0,3.1881,3.1897,3.1953,3.2017,3.2064,3.2116,3.2167,3.2196,3.224,3.2285,3.2354,3.2397,3.2484,3.2551,3.262,3.2656,3.2665,3.267,3.2682,3.2673,3.2657,3.2666,3.2554,3.2666,3.2665,3.2665,3.2665,3.2664,3.1933,3.1976,3.2032,3.2095,3.2138,3.2186,3.2232,3.227,3.2327,3.2399,3.2417,3.2489,3.2547,3.264,3.2678,3.2736,3.2728,3.2747,3.2752,3.2755,3.2756,3.265,3.2749,3.2748,3.2748,3.2748,3.2748,0,3.2013,3.205,3.2108,3.2179,3.2229,3.2235,3.2293,3.2334,3.2397,3.2449,3.2504,3.2584,3.265,3.27,3.2768,3.2805,3.2811,3.2822,3.2818,3.2826,3.2759,3.2741,3.2815,3.2815,3.2815,3.2815,3.2815,3.2815,3.206,3.2134,3.2158,3.2254,3.2291,3.2361,3.2394,3.2439,3.2481,3.2569,3.2624,3.2656,3.2709,3.2781,3.2842,3.2856,3.2879,3.2889,3.2903,3.2838,3.2831,3.2824,3.2807,3.2894,3.2894,3.2965,3.2966,3.2966]},{"header":{"parameterUnit":"m.s-1","parameterCategory":1,"la1":30.2991,"la2":30.254,"lo1":-89.0895,"lo2":-89.0444,"dy":0.0017,"dx":0.0017,"nx":28,"ny":28,"refTime":"2023-08-06T21:00:00:Z","depth":0,"parameterNumber":3,"parameterNumberName":"V-component_of_WINDS"},"data":[0,0,0,0,0,0,0,0,0,0,0,0,0,0,0,0,0,0,0,0,0,0,0,0,0,0,0,0,0,0,0,0,0,0,0,0,0,0,0,0,0,0,0,0,0,0,0,0,0,0,0,0,0,0,0,0,0,0,4.0837,4.0838,0,4.0922,4.0923,4.0924,4.0947,4.0947,4.0946,4.0946,4.1027,4.1029,4.1032,0,0,0,0,0,0,0,0,0,0,0,0,0,4.0686,4.0689,4.0837,4.0838,4.0839,4.0922,4.0923,4.0925,4.0948,4.0947,4.0946,4.0946,4.1026,4.1029,4.1032,0,0,0,0,0,0,0,0,0,0,0,0,0,4.0759,4.069,4.0837,4.0861,4.0864,4.0922,4.0923,4.0925,4.0948,4.0947,4.0946,4.0946,4.1025,4.1028,4.1032,4.1071,0,0,4.1044,4.1046,0,0,0,0,0,0,0,0,4.0755,4.0765,4.0856,4.0859,4.0863,4.0924,4.09,4.0973,4.0948,4.0916,4.0946,4.0945,4.0992,4.0999,4.1016,4.1074,4.1078,4.1044,4.1047,4.1048,4.105,0,0,0,0,0,0,0,4.075,4.0761,4.0871,4.0858,4.0862,4.0865,4.0874,4.0914,4.0957,4.0918,4.092,4.093,4.0994,4.1012,4.1018,4.1079,4.1044,4.1048,4.105,4.1052,4.1169,4.117,0,0,0,0,0,0,4.0742,4.0757,4.0868,4.0873,4.0806,4.0868,4.0879,4.0905,4.0956,4.0964,4.0931,4.0931,4.1006,4.1014,4.1021,4.1068,4.1048,4.1052,4.1054,4.1168,4.1169,4.117,0,0,0,0,0,0,4.0738,4.0752,4.0864,4.0816,4.083,4.0871,4.09,4.0907,4.0925,4.0966,4.0973,4.0942,4.1006,4.1016,4.1058,4.1071,4.1054,4.1057,4.1167,4.1169,4.117,4.1162,0,0,0,0,0,0,4.0734,4.075,4.0767,4.0816,4.0833,4.0902,4.0901,4.0909,4.0933,4.0934,4.0979,4.0985,4.1006,4.1052,4.1062,4.1076,4.106,4.1166,4.1168,4.1169,4.1161,4.1162,4.1164,0,0,0,0,0,4.0729,4.0761,4.0768,4.0781,4.0855,4.0903,4.0912,4.0938,4.0934,4.095,4.0975,4.0984,4.1068,4.1056,4.1067,4.1083,4.1166,4.1168,4.1169,4.116,4.1162,4.1164,0,0,0,0,0,0,4.0711,4.0768,4.0776,4.0826,4.086,4.0907,4.0928,4.0939,4.0973,4.0972,4.1,4.101,4.1049,4.107,4.1056,4.1121,4.1117,4.1121,4.1106,4.1108,4.1109,4.1103,4.1064,0,0,0,0,0,4.0713,4.0749,4.0796,4.0835,4.0852,4.0887,4.0908,4.0925,4.096,4.0974,4.1003,4.1034,4.1068,4.1089,4.1122,4.1164,4.1173,4.118,4.1181,4.1182,4.1185,4.1206,4.1209,4.1176,4.1176,4.1176,0,0,4.0717,4.0753,4.0774,4.0832,4.086,4.0895,4.0899,4.0935,4.096,4.0979,4.1021,4.1042,4.1079,4.1121,4.1141,4.1139,4.1196,4.1184,4.1185,4.1187,4.1208,4.1211,4.1214,4.1177,4.1177,4.1177,0,0,4.0742,4.0774,4.0809,4.0837,4.088,4.0903,4.0911,4.0957,4.0972,4.1015,4.1029,4.1057,4.1115,4.114,4.116,4.1192,4.12,4.1202,4.1209,4.1229,4.1232,4.1234,4.1244,4.1247,4.1205,4.1205,4.1205,0,4.0741,4.0796,4.0825,4.0861,4.0884,4.0905,4.0938,4.0963,4.1014,4.1028,4.1027,4.1098,4.1125,4.1171,4.1179,4.1195,4.1203,4.1197,4.123,4.1232,4.1235,4.1244,4.1248,4.1205,4.1205,4.1205,4.1205,0,4.0792,4.0829,4.0852,4.0902,4.0928,4.0963,4.0994,4.1016,4.103,4.1052,4.1093,4.1125,4.1164,4.1177,4.119,4.1224,4.1222,4.1225,4.1221,4.1238,4.1247,4.1251,4.1205,4.1205,4.1205,4.1205,0,0,4.0808,4.0873,4.0881,4.0903,4.0951,4.0979,4.1013,4.1053,4.1071,4.1104,4.1131,4.1179,4.1181,4.1204,4.122,4.1238,4.1258,4.1238,4.1239,4.1239,4.1296,4.1293,4.1297,4.1264,4.1265,4.1266,4.1292,0,4.0838,4.0903,4.0928,4.0979,4.1012,4.103,4.1059,4.109,4.1111,4.114,4.1162,4.1195,4.1196,4.121,4.1229,4.1252,4.127,4.125,4.1287,4.1288,4.1277,4.1302,4.1299,4.1323,4.1296,4.1297,4.1297,0,4.0882,4.0917,4.0972,4.1014,4.1029,4.1055,4.1093,4.1121,4.1155,4.1169,4.1194,4.1208,4.1241,4.1235,4.1279,4.1265,4.1282,4.1295,4.1296,4.13,4.1293,4.1305,4.1331,4.1334,4.1303,4.1303,4.1302,0,4.0886,4.0948,4.0988,4.1006,4.1057,4.1074,4.1096,4.113,4.1151,4.1183,4.1197,4.1231,4.1249,4.1274,4.1296,4.129,4.1337,4.1334,4.1347,4.1347,4.1356,4.1355,4.1384,4.1368,4.1368,4.1368,4.1368,0,4.0916,4.0948,4.099,4.1015,4.105,4.1078,4.1111,4.1134,4.1163,4.119,4.1207,4.1231,4.126,4.1287,4.1304,4.1336,4.1345,4.1355,4.1359,4.1353,4.1351,4.1363,4.1362,4.1369,4.1369,4.1368,4.1368,0,4.0927,4.0957,4.1002,4.1046,4.1058,4.1082,4.1118,4.1141,4.1163,4.1196,4.1206,4.1238,4.1271,4.1296,4.1337,4.1349,4.1383,4.1387,4.1372,4.1374,4.1385,4.1383,4.1422,4.1428,4.1409,4.1409,4.1409,0,4.0944,4.0969,4.1017,4.1037,4.1059,4.1091,4.1114,4.1141,4.1163,4.1203,4.122,4.1254,4.1283,4.1333,4.1359,4.139,4.1395,4.1407,4.14,4.1393,4.1394,4.1392,4.1393,4.1407,4.1407,4.1407,4.1407,0,4.097,4.0983,4.1016,4.1054,4.108,4.1111,4.1141,4.1156,4.1188,4.1211,4.1246,4.1268,4.1311,4.1344,4.1378,4.1396,4.1406,4.1409,4.1414,4.1408,4.1397,4.1402,4.1373,4.1408,4.1408,4.1408,4.1408,4.1408,4.0983,4.1006,4.1043,4.1078,4.1104,4.1132,4.1155,4.118,4.121,4.1248,4.1262,4.1296,4.1327,4.1374,4.1393,4.1419,4.1419,4.1426,4.1427,4.1428,4.1427,4.1394,4.1425,4.1425,4.1425,4.1425,4.1425,0,4.1008,4.1033,4.1065,4.1108,4.1135,4.1144,4.1178,4.1199,4.1231,4.126,4.1288,4.1326,4.1357,4.1386,4.1417,4.1432,4.1438,4.144,4.1438,4.1442,4.1426,4.1418,4.1435,4.1435,4.1435,4.1435,4.1435,4.1435,4.1025,4.1063,4.108,4.1131,4.1154,4.119,4.1208,4.1233,4.1256,4.1299,4.1326,4.1345,4.1373,4.1407,4.1435,4.1442,4.1452,4.1453,4.1461,4.1445,4.1444,4.1442,4.1435,4.1455,4.1455,4.1475,4.1475,4.1475]}]]